Время (UTC), дата Ветер
(°,м/с) 
Видим.   Явления Облачность Т
(°С)
Тd
(°С)
f(%) Тe
(°С)
Pmin
(гПа)
dP
(гПа)
Po
(мм)
O2
(г/м3)
Тmin Tmax R s Состояние
почвы
00 01.12.14 280 (З) 10 км  в посл. час снег{ливн. осадки}  8/8 180 м 
[Sc diur, vesp]
-2.2 -3.2 93 -6  1017.2  0.9  721  293           
03 01.12.14 250 (З) 4{11}  10 км  слаб. снег  10/10 150 м 
[Sc]
-2 -3.1 92 -5  1017.2  721  293  -2.4    равномерный
мокрый или
старый снег
100% 
09 01.12.14 280 (З) 5{10}  2500 м  снег  10/10 100 м 
[Frnb|Ns]
-2.6 -3.4 94 -6  1018  0.2  721  294           
12 01.12.14 260 (З) 8-11  3000 м  снег  10/10 270 м 
[Frnb|Ns]
-3.4 -5 89 -8  1018.2  -0.1  722  295           
15 01.12.14 280 (З) 10 км  слаб. снег  10/10 300 м 
[Frnb|Ns]
-3.7 -5.2 89 -8  1019.8  1.4  723  296    -1.8  0.2     
18 01.12.14 280 (З) 6-10  10 км  {снег}  10/6 150 м средняя 
[Sc|As op]
-4.6 -5.7 92 -9  1021.6  1.5  724  297           
21 01.12.14 280 (З) 6-11{11}  0400 м  переохл. туман{снег}  ?/?  
-4.8 -5.6 94 -9  1023.1  1.4  725  298           
00 02.12.14 280 (З) 6{12}  0500 м  переохл. туман{снег}  ?/?  
-5.1 -6 94 -10  1024.5  1.2  726  299           
03 02.12.14 280 (З) 0800 м  переохл. туман  ?/?  
-5.7 -6.6 93 -10  1026.3  1.6  727  300  -5.7    0.0  равномерный
сухой снег
100% 
06 02.12.14 270 (З) 10 км  {туман}  10/8 300 м средняя 
[St|Ac und]
-5.3 -6.1 94 -8  1027.3  728  300           
09 02.12.14 280 (З) 20000 м    9/9 330 м 
[St]
-4.5 -5.3 94 -7  1026.6  -0.5  727  298           
15 02.12.14 290 (З) 20000 м    10/10 330 м 
[St]
-6.1 -7.4 90 -8  1027.1  0.7  727  300    -3.9       
18 02.12.14 300 (СЗ) 20000 м    8/8 500 м 
[Sc]
-6.8 -8.2 90 -8  1028.8  1.4  728  302           
21 02.12.14 320 (СЗ) 2500 м  дымка  10/10 100 м 
[St]
-8.4 -9.5 92 -11  1031.1  1.8  730  304           
00 03.12.14 340 (С) 0400 м  переохл. туман  ?/?  
-10.1 -11.4 90 -13  1033.4  1.8  731  307           
03 03.12.14 020 (С) 0300 м  переохл. туман  ?/?  
-11.6 -13.1 88 -14  1035.7  1.8  733  309  -12      равномерный
сухой снег
100% 
06 03.12.14 080 (В) 4000 м  слаб. снег{туман}  10/10 180 м 
[Frnb|Ns]
-10.2 -11.6 89 -12  1038.1  2.6  734  308           
09 03.12.14 130 (ЮВ) 10 км  слаб. снег  10/10 200 м 
[Frnb|Ns]
-9.2 -10.4 91 -11  1037.8  0.1  734  307           
12 03.12.14 130 (ЮВ) 20000 м  {снег}  8/8 180 м 
[St]
-8.9 -10.1 91 -12  1037.7  734  307           
15 03.12.14 120 (ЮВ) 20000 м    8/6 150 м средняя 
[St|Ac As]
-9.4 -10.7 90 -12  1038.4  0.6  735  308    -8.7  0.3     
18 03.12.14 160 (Ю) 10 км    3/3 200 м 
[St]
-10.8 -12.2 89 -14  1037.2  -1.5  734  309           
21 03.12.14 150 (ЮВ) 20000 м    ясно 
-10 -11.3 90 -13  1035.4  -1.5  733  307           
00 04.12.14 160 (Ю) 20000 м    ясно 
-10.2 -11.5 90 -13  1034.5  -1  732  307           
03 04.12.14 150 (ЮВ) 20000 м    ясно 
-8.7 -9.9 91 -12  1033.5  -0.5  731  305  -11.5    0.0  равномерный
сухой снег
100% 
06 04.12.14 150 (ЮВ) 20000 м    ясно 
-7.3 -8.5 91 -10  1034  0.8  732  304           
09 04.12.14 120 (ЮВ) 20000 м    4/0 верхняя 
[Ci fib]
-2.9 -5.2 84 -6  1031  -2  731  298           
12 04.12.14 110 (В) 20000 м    8/0 верхняя 
[Ci]
-2.3 -6.3 74 -5  1029.1  -1.6  729  297           
15 04.12.14 120 (ЮВ) 20000 м    3/0 средняя 
[Ac trans]
-5.2 -9.4 72 -8  1028.8  -0.9  729  300    -0.4       
18 04.12.14 120 (ЮВ) 20000 м    8/0 средняя 
[Ac As]
-7.5 -10.6 78 -10  1027.9  -1.4  728  302           
21 04.12.14 130 (ЮВ) 20000 м    8/0 средняя 
[Ac trans]
-7 -9.2 84 -8  1026.7  -1  727  301           
00 05.12.14 200 (Ю) 20000 м    10/0 средняя 
[Ac und]
-4.5 -7.2 81 -4  1025.6  -0.5  727  298           
03 05.12.14 290 (З) 20000 м    4/0 средняя 
[Ac trans]
-4.5 -7.2 81 -7  1025.6  -0.2  726  298  -8.1      равномерный
сухой снег
100% 
06 05.12.14 320 (СЗ) 20000 м    3/0 средняя 
[Ac trans]
+2 -8 48 +1  1024.9  0.8  727  292           
09 05.12.14 270 (З) 20000 м    1/0 средняя 
[Ac trans]
+3.5 -4.5 56 +3  1025.3  0.7  728  290           
12 05.12.14 350 (С) 20000 м    ясно 
+3.1 -11.3 34 +3  1026  0.5  728  291           
15 05.12.14 тихо ()   20000 м    ясно 
-3.4 -6.7 78 -3  1029.2  1.8  729  298    +5.2       
18 05.12.14 130 (ЮВ) 0200 м  переохл. туман  ясно 
-6 -6.7 95 -7  1031.5  1.6  731  302           
21 05.12.14 140 (ЮВ) 0200 м    ?/?  
-7.4 -8.3 93 -9  1033.1  1.2  731  304           
00 06.12.14 120 (ЮВ) 0200 м  переохл. туман  ?/?  
-6.1 -7.1 93 -9  1033.4  0.5  732  302           
03 06.12.14 110 (В) 0200 м  переохл. туман  ?/?  
-5.9 -6.9 93 -9  1033.9  0.5  732  302  -8.3      <0.5  мокрый или
старый снег
10-40% 
06 06.12.14 110 (В) 0400 м  туман  ?/?  
-6.2 -7.2 92 -11  1034.9  733  303           
09 06.12.14 110 (В) 0900 м  туман  ?/?  
-5.7 -6.6 93 -10  1034.6  0.1  733  302           
12 06.12.14 100 (В) 4000 м  дымка{туман}  10/10 60 м 
[St]
-5.4 -6.3 93 -9  1033.6  -0.9  732  302           
15 06.12.14 120 (ЮВ) 2000 м  дымка  10/10 50 м 
[St]
-6.2 -7.2 92 -11  1033.7  0.1  732  303    -5.1       
18 06.12.14 110 (В) 4000 м  дымка  6/6 150 м 
[St]
-7.5 -8.6 92 -12  1033  -0.9  731  304           
21 06.12.14 110 (В) 6{10}  10 км    3/3 300 м 
[St]
-7.7 -8.8 92 -13  1031.7  -1.3  730  304           
00 07.12.14 130 (ЮВ) 20000 м    6/6 300 м 
[St]
-6.3 -7.3 93 -11  1031  -1.3  730  302           
03 07.12.14 140 (ЮВ) 4000 м  снежные зёрна  10/10 100 м 
[St]
-4.4 -5.3 93 -9  1029.5  -1  729  299  -8.2    0.0     
06 07.12.14 130 (ЮВ) 10-14  4000 м  снежные зёрна  10/10 180 м 
[St]
-3.3 -4.1 94 -9  1028.4  -0.8  729  298           
12 07.12.14 130 (ЮВ) 5{12}  20000 м  {снег}  10/10 240 м 
[St]
-0.9 -2 92 -4  1024.9  -1.2  727  294           
18 07.12.14 120 (ЮВ) 10 км    6/4 300 м средняя 
[St|Ac trans]
-2.7 -3.7 93 -4  1024.6  -0.8  726  296           
21 07.12.14 130 (ЮВ) 20000 м    8/0 средняя 
[Ac trans]
-2.3 -3.5 91 -2  1023.6  -0.8  725  295           
00 08.12.14 130 (ЮВ) 20000 м    9/0 средняя 
[Ac trans]
-1.7 -3.5 88 -3  1023.5  725  294           
03 08.12.14 170 (Ю) 20000 м    8/0 средняя 
[Ac trans]
+1.5 -2.1 77 1022.2  -0.5  725  291  -3.4      <0.5  мокрый или
старый снег
10-40% 
06 08.12.14 190 (Ю) 20000 м    10/0 средняя 
[Ac und]
+6.6 -0.5 60 +6  1021.8  0.6  725  285           
09 08.12.14 170 (Ю) 20000 м    9/0 средняя 
[Ac trans]
+10 -0.3 49 +10  1020.8  0.6  725  282           
12 08.12.14 130 (ЮВ) 20000 м    6/0 средняя 
[Ac As]
+9.6 +0.8 54 +10  1020.5  -0.4  725  282           
15 08.12.14 120 (ЮВ) 20000 м    3/0 средняя 
[Ac trans]
+5.7 +0.3 68 +5  1021.5  0.3  725  286    +12.3       
18 08.12.14 160 (Ю) 20000 м    3/0 средняя 
[Ac trans]
+0.8 -1.4 85 -1  1022.5  725  291           
21 08.12.14 150 (ЮВ) 20000 м    3/0 средняя 
[Ac trans]
+2.7 -1.1 76 +1  1022.1  725  289           
00 09.12.14 130 (ЮВ) н/о    н/о 
+3.6 -1.9 67 +2  1022.2  0.3  725  289           
03 09.12.14 150 (ЮВ) 20000 м    4/0 средняя, верхняя 
[Ac trans|Ci fib]
+2.2 -2.4 72 +1  1022.7  0.2  725  290  +0.3         
06 09.12.14 120 (ЮВ) 20000 м    4/0 средняя 
[Ac trans]
+2.5 -1.9 73 1023.1  0.5  726  290           
09 09.12.14 130 (ЮВ) 20000 м    3/0 верхняя 
[Ci fib]
+5.4 -1.4 61 +3  1022.5  726  287           
12 09.12.14 120 (ЮВ) 20000 м    5/0 верхняя 
[Ci fib]
+3.7 -0 77 +1  1022.5  -0.3  726  288           
18 09.12.14 120 (ЮВ) 6{10}  20000 м    10/6 210 м средняя 
[St|Ac und]
+2.3 +1.3 93 -1  1023.9  0.3  726  290           
21 09.12.14 120 (ЮВ) 7-11{13}  10 км    10/10 120 м 
[St]
+2.7 +1.7 93 -1  1022.7  -1.1  726  289           
00 10.12.14 120 (ЮВ) 7-10{12}  20000 м    10/6 180 м средняя 
[St|Ac und]
+2.2 +1.4 95 -1  1022.6  0.1  725  290           
03 10.12.14 110 (В) 10 км    10/10 100 м 
[St]
+2 +1.2 94 -2  1021.7  -0.9  725  290  -0.3         
06 10.12.14 110 (В) 7-10{13}  10 км    10/8 120 м средняя 
[St|Ac und]
+1.6 +0.8 94 -2  1021.7  0.1  725  290           
09 10.12.14 120 (ЮВ) 7-10{11}  10 км    10/8 180 м средняя 
[St|Ac und]
+2.4 +1.2 92 -1  1020.5  -1  724  289           
12 10.12.14 100 (В) 5{11}  10 км    10/10 180 м 
[St]
+1.8 +0.8 93 -1  1020.5  -0.2  724  290           
15 10.12.14 110 (В) 1500 м  дымка{туман}  10/10 100 м 
[St]
+0.7 +0 95 -2  1021.3  0.5  724  291    +2.7       
18 10.12.14 140 (ЮВ) 4000 м  дымка{туман}  8/6 180 м средняя 
[St|Ac As]
+0.4 -0.2 96 -1  1021.4  724  291           
21 10.12.14 120 (ЮВ) 20000 м    10/0 средняя 
[Ac und]
+1.4 +0.5 94 +1  1021  -0.2  724  290           
00 11.12.14 230 (ЮЗ) 20000 м    4/0 средняя 
[Ac trans]
+3.2 +1.2 87 +3  1021.6  725  288           
06 11.12.14 220 (ЮЗ) 20000 м    4/0 средняя, верхняя 
[Ac trans|Ci fib]
+8 +4.6 79 +7  1022.5  1.2  726  284           
09 11.12.14 290 (З) 20000 м    5/0 средняя 
[Ac trans]
+13.1 +6.9 66 +13  1022.1  0.6  727  278           
12 11.12.14 330 (СЗ) 20000 м    9/0 средняя 
[Ac trans]
+10.7 +6.7 76 +11  1022.9  0.3  727  281           
15 11.12.14 170 (Ю) 20000 м    9/0 средняя 
[Ac trans]
+8.2 +6.2 87 +9  1024.5  1.1  728  284    +13.4       
18 11.12.14 тихо ()   4000 м  дымка  4/0 средняя 
[Ac trans]
+6.2 +5.5 95 +6  1025.3  0.3  728  286           
21 11.12.14 130 (ЮВ) 4000 м  дымка{туман}  8/8 630 м 
[Sc]
+6.4 +5.8 96 +5  1024.6  -0.6  728  285           
00 12.12.14 110 (В) 1000 м  дымка{туман}  4/4 600 м 
[Sc]
+4.8 +4.2 96 +3  1024.5  -0.4  727  287           
03 12.12.14 100 (В) 0900 м  туман  4/4 300 м 
[St]
+2.5 +1.9 96 +1  1023.7  -1.2  726  290  +2.2         
06 12.12.14 110 (В) 20000 м  местами туман поземный  10/0 средняя, верхняя 
[Ac As|Cs]
+4 +3.5 97 +4  1022.8  -0.5  726  288           
09 12.12.14 130 (ЮВ) 20000 м    10/0 средняя, верхняя 
[Ac trans|Cs]
+8.4 +4.8 78 +7  1019.8  -2  724  282           
12 12.12.14 100 (В) 20000 м    10/0 средняя 
[Ac und]
+8.8 +5.6 80 +8  1017.7  -1.9  723  281           
15 12.12.14 110 (В) 10 км    10/3 1000 м средняя 
[Sc|Ac und]
+3.1 +2.1 93 +1  1017.9  -0.9  722  287    +9.8       
18 12.12.14 140 (ЮВ) 5{11}  10 км    10/5 120 м средняя 
[St|Ac und]
+1.5 +0.8 95 -1  1017.1  -1.1  721  289           
21 12.12.14 160 (Ю) 20000 м    10/0 средняя 
[Ac und]
+2.1 +1.2 94 -1  1016.3  -0.6  721  288           
00 13.12.14 300 (СЗ) 20000 м    8/0 средняя, верхняя 
[Ac As|Ci sp]
+9.8 +1.2 55 +8  1016  1.2  722  281           
03 13.12.14 290 (З) 20000 м    10/0 средняя 
[Ac und]
+7.6 +4 78 +5  1017.9  1.4  723  283  +1.3         
06 13.12.14 290 (З) 7-10  4000 м  дымка{туман}  10/10 150 м 
[St]
+5.3 +4 91 +3  1022.9  4.2  726  286           
09 13.12.14 290 (З) 5{11}  20000 м    8/6 500 м средняя 
[Sc|Ac trans]
+4.8 +1.2 77 +3  1024.9  1.7  727  288           
12 13.12.14 290 (З) 20000 м    6/3 600 м средняя 
[Sc|Ac trans]
+5.8 +0.4 68 +5  1025.4  0.7  728  287           
15 13.12.14 290 (З) 20000 м    3/0 средняя 
[Ac trans]
+1.1 -0.7 88 +2  1028.5  729  293    +7.7       
18 13.12.14 140 (ЮВ) 20000 м    ясно 
-1.1 -1.9 94 -2  1029.4  0.4  730  295           
21 13.12.14 150 (ЮВ) 0600 м  туман  ?/?  
-1.3 -1.9 96 -2  1028.7  -0.7  729  295           
00 14.12.14 140 (ЮВ) 0200 м  туман  ?/?  
-5.1 -6 94 -6  1030  0.4  730  300           
03 14.12.14 160 (Ю) 0200 м  туман  ?/?  
-1.7 -2.4 95 -4  1029.5  0.3  730  296  -5.4         
06 14.12.14 160 (Ю) 0200 м  туман [диам. сложн. отлож. 6 мм]  ?/?  
+0.2 -0.4 96 -2  1030  0.9  730  294           
09 14.12.14 130 (ЮВ) 0800 м  туман  ?/?  
+2.2 +1.6 96 1029.1  -0.5  730  292           
12 14.12.14 140 (ЮВ) 20000 м  {туман}  1/0 средняя 
[Ac trans]
+4.6 +1.1 78 +3  1028.2  -0.4  730  289           
15 14.12.14 090 (В) 2000 м  дымка  4/4 200 м 
[St]
+0.6 -0.1 95 -2  1029.6  0.5  730  293    +4.8       
18 14.12.14 160 (Ю) 0200 м  туман  ?/?  
+0.5 -0.1 96 -2  1029.7  0.1  730  294           
21 14.12.14 150 (ЮВ) 0200 м  туман  ?/?  
+0.9 +0.3 96 -3  1029.2  -0.4  730  293           
00 15.12.14 140 (ЮВ) 0200 м  туман  ?/?  
+0.9 +0.4 96 -2  1028.8  -0.4  730  293           
03 15.12.14 130 (ЮВ) 0100 м  туман  ?/?  
-0.1 -0.6 97 -3  1028.7  -0.2  729  294  -0.1         
06 15.12.14 160 (Ю) 20000 м  {туман}  ясно 
+0.3 -0.2 96 -1  1029.1  0.4  730  294  -1.9         
09 15.12.14 130 (ЮВ) 20000 м    3/3 200 м 
[St]
+6.6 +2.8 77 +6  1027.5  -0.2  730  287           
12 15.12.14 150 (ЮВ) 20000 м    4/0 верхняя 
[Ci fib]
+9.2 +3.3 67 +10  1026.6  -0.4  729  284           
15 15.12.14 150 (ЮВ) 20000 м    3/0 средняя 
[Ac trans]
+3.8 +2.8 93 +5  1028.6  0.9  730  290    +9.8       
18 15.12.14 230 (ЮЗ) 20000 м    3/0 средняя 
[Ac trans]
+4.4 +2.1 85 +5  1028.6  730  289           
21 15.12.14 210 (ЮЗ) 20000 м    3/0 средняя 
[Ac trans]
+3 +0.8 85 +4  1028.7  -0.1  730  291           
00 16.12.14 210 (ЮЗ) 20000 м    ясно 
+2.2 +1.5 95 +3  1029.4  0.5  730  292           
03 16.12.14 200 (Ю) 20000 м    ясно 
+3.1 +2.5 96 +3  1028.9  -0.3  730  290  +0.1         
06 16.12.14 160 (Ю) 20000 м  местами туман поземный  3/0 верхняя 
[Ci fib]
+6 +5.4 96 +6  1028.6  0.3  730  287           
09 16.12.14 060 (СВ) 20000 м    3/1 600 м верхняя 
[Sc|Ci fib]
+9.4 +3.5 67 +9  1027.6  -0.3  730  284           
12 16.12.14 030 (СВ) 20000 м    8/0 верхняя 
[Ci fib]
+7.9 +3.6 74 +8  1027.5  -0.4  730  285           
15 16.12.14 190 (Ю) 20000 м    6/0 верхняя 
[Ci fib]
+1.5 +0.5 93 +2  1029.3  0.4  730  292    +9.5       
18 16.12.14 190 (Ю) 0500 м  туман [диам. гололёда 0 мм]  4/0 верхняя 
[Ci fib]
+0.5 -0.2 95 1029.1  -0.4  730  293           
21 16.12.14 150 (ЮВ) 20000 м  {туман} [диам. гололёда 0 мм]  3/0 верхняя 
[Ci fib]
+2.1 -0.7 82 +1  1028.2  -0.5  729  292           
00 17.12.14 160 (Ю) 20000 м  {туман}  3/0 верхняя 
[Ci fib]
+0 -2 86 -1  1028.5  0.1  729  294           
03 17.12.14 150 (ЮВ) 20000 м    3/0 верхняя 
[Ci fib]
-2 -2.9 94 -3  1028.3  -0.6  729  296  -2.3         
06 17.12.14 120 (ЮВ) 20000 м    3/0 верхняя 
[Ci fib]
-1.7 -3.2 90 -4  1027.7  -0.5  728  296  -4.7         
09 17.12.14 130 (ЮВ) 20000 м  {туман}  6/3 300 м верхняя 
[Sc|Ci]
+2.6 -0.1 82 1025  -1.7  727  290           
15 17.12.14 130 (ЮВ) 0400 м  туман  ?/?  
-2 -2.5 96 -6  1023.7  -0.9  726  295    +2.9       
18 17.12.14 130 (ЮВ) 20000 м  {туман}  10/10 120 м 
[St]
-2.1 -2.8 95 -6  1022.4  -1.3  725  295           
21 17.12.14 130 (ЮВ) 20000 м    6/0 средняя 
[Ac trans]
-1.5 -2.7 92 -3  1021.2  -0.9  724  294           
00 18.12.14 150 (ЮВ) 20000 м    8/3 600 м средняя 
[Sc|Ac trans]
-0.9 -2.2 91 -3  1020.1  -1  723  293           
06 18.12.14 250 (З) 20000 м    9/3 600 м средняя 
[Sc|Ac trans]
+1.1 -1.7 82 1018.8  -0.1  723  290           
09 18.12.14 300 (СЗ) 20000 м    8/3 600 м средняя 
[Sc|Ac trans]
+7.2 -0.5 58 +7  1016.7  -0.8  722  283           
12 18.12.14 160 (Ю) 10 км    8/4 600 м средняя 
[Sc|Ac trans]
+6.7 +0.6 65 +8  1016.3  -0.5  722  284           
15 18.12.14 260 (З) 20000 м    9/3 600 м средняя 
[Sc|Ac trans]
+7 -3.4 47 +6  1016.6  0.4  722  284    +7.8       
18 18.12.14 120 (ЮВ) 20000 м    9/4 600 м средняя 
[Sc|Ac trans]
+7.1 -3.7 46 +8  1016.4  -0.2  722  284           
21 18.12.14 330 (СЗ) 20000 м    9/4 600 м средняя 
[Sc|Ac trans]
+9.1 -1.1 49 +9  1015.7  -0.3  722  281           
00 19.12.14 030 (СВ) 20000 м    6/1 600 м средняя 
[Sc|Ac trans]
+6 -0.1 65 +7  1016.7  0.4  722  285           
06 19.12.14 270 (З) 20000 м    8/0 средняя 
[Ac trans]
+6.9 -0.6 59 +6  1018.6  1.3  723  284           
09 19.12.14 270 (З) 6{10}  20000 м    8/0 средняя 
[Ac trans]
+12 +2.4 52 +11  1018  0.4  724  279           
12 19.12.14 280 (З) 20000 м    4/0 средняя 
[Ac trans]
+11.3 +3 57 +10  1018.4  0.3  724  280           
15 19.12.14 250 (З) 20000 м    8/0 средняя 
[Ac trans]
+8.1 +2.7 69 +7  1020.1  725  283    +12       
18 19.12.14 250 (З) 20000 м    9/3 1000 м средняя 
[Sc|Ac trans]
+8.3 +4.6 78 +7  1020.9  0.9  725  283           
21 19.12.14 260 (З) 10 км    10/8 240 м средняя 
[St|Ac und]
+7.3 +5.5 88 +6  1021.5  0.4  725  284           
00 20.12.14 250 (З) 10 км    8/6 420 м средняя 
[St|Ac trans]
+6.6 +4.8 88 +5  1021.6  725  285           
03 20.12.14 270 (З) 10 км    9/5 300 м средняя 
[St|Ac trans]
+5.8 +4.4 91 +4  1021.7  0.1  725  285  +5.8         
06 20.12.14 260 (З) 20000 м    8/5 1000 м средняя, верхняя 
[Sc|Ac trans|Ci sp]
+6 +4.3 89 +5  1021.9  0.3  726  285  +4.5         
09 20.12.14 270 (З) 20000 м    10/3 1000 м средняя, верхняя 
[Sc|Ac As|Ci sp]
+8.4 +3.6 72 +7  1020.9  -0.5  725  283           
12 20.12.14 260 (З) 4{10}  20000 м    9/0 средняя 
[Ac trans]
+8.3 +1.9 64 +7  1019.8  -1.1  724  283           
15 20.12.14 220 (ЮЗ) 20000 м    10/0 средняя 
[Ac und]
+5.2 +1.7 78 +5  1020.1  -0.3  724  286    +10.1       
18 20.12.14 150 (ЮВ) 20000 м    10/0 средняя 
[Ac und]
+5.3 +1.8 78 +4  1019.7  -0.4  724  286           
21 20.12.14 190 (Ю) 20000 м    8/0 средняя 
[Ac As]
+3.2 +1.6 89 +3  1019.2  -0.9  723  288           
00 21.12.14 210 (ЮЗ) 20000 м    3/0 средняя 
[Ac trans]
+3.5 +0.7 82 +2  1018.3  -0.7  723  287           
06 21.12.14 220 (ЮЗ) 20000 м  слаб. ливневой дождь  10/3 1000 м кучево-дожд., средняя 
[Cb cap|Ac trans]
+6.1 +2.3 77 +6  1018.1  0.7  723  284           
09 21.12.14 170 (Ю) 20000 м  слаб. ливневой дождь  10/3 1000 м кучево-дожд., средняя 
[Cb cap|Ac und]
+7.4 +3.5 76 +7  1016.5  -1.3  722  283           
12 21.12.14 100 (В) 20000 м  слаб. ливневой дождь  10/3 1000 м кучево-дожд., средняя 
[Cb cap|Ac und]
+7.3 +4.9 85 +7  1015.3  -1.1  721  282           
15 21.12.14 110 (В) 20000 м  в посл. час ливневой дождь  10/5 1000 м кучево-дожд., средняя 
[Cb cap|Ac und]
+6.1 +3.5 83 +5  1015  -0.6  721  283    +8  0.4     
18 21.12.14 130 (ЮВ) 20000 м  {ливн. осадки}  9/0 средняя 
[Ac trans]
+5.7 +2.4 79 +4  1013.2  -1.7  719  283           
21 21.12.14 160 (Ю) 5{13}  20000 м    10/0 средняя 
[Ac und]
+6.5 +1.9 72 +5  1011.4  -1.6  718  282           
00 22.12.14 180 (Ю) 5{11}  20000 м    9/0 средняя 
[Ac und]
+6.3 +0.9 68 +4  1010  -1.3  717  282           
03 22.12.14 300 (СЗ) 20000 м    8/0 средняя 
[Ac trans]
+4.6 +0.7 76 +4  1009  -1.3  716  284  +3.1         
06 22.12.14 310 (СЗ) 20000 м  слаб. ливневой дождь  10/6 150 м кучево-дожд., средняя 
[Cb cap|Ac und]
+2 +0.8 92 -1  1012.3  2.7  718  287  +2         
09 22.12.14 270 (З) 6{11}  2100 м  ливневой снег  10/8 150 м кучево-дожд., средняя 
[Cb cap|Ac und]
-0.2 -1 94 -4  1015.5  2.6  720  290           
15 22.12.14 260 (З) 20000 м    10/5 300 м кучево-дожд. 
[Cb calv]
-0.1 -1.7 89 -4  1018.8  1.6  722  291    +5.8     
18 22.12.14 270 (З) 8-11{13}  20000 м    8/8 660 м 
[Sc diur, vesp]
-1 -3 86 -5  1020.3  1.2  723  293           
21 22.12.14 260 (З) 6{14}  20000 м    4/4 600 м 
[Sc]
-1.9 -5 79 -6  1020.6  0.1  723  294           
00 23.12.14 260 (З) 20000 м    3/0 средняя 
[Ac trans]
-2.4 -6.3 75 -6  1019.3  -1.3  722  294           
03 23.12.14 180 (Ю) 20000 м    4/0 средняя 
[Ac trans]
-3.1 -6 80 -6  1017  -2.3  721  294  -4.1         
06 23.12.14 190 (Ю) 20000 м    8/0 средняя 
[Ac trans]
-1 -5.2 73 -3  1015.2  -1.3  720  292           
09 23.12.14 190 (Ю) 20000 м    10/3 1000 м средняя 
[Sc|Ac trans]
+2.1 -4.4 62 1012.3  -2.1  718  288           
12 23.12.14 210 (ЮЗ) 20000 м    10/3 1000 м средняя 
[Sc|Ac und]
+2.8 -6.2 52 +1  1009.8  -2.2  716  286           
15 23.12.14 230 (ЮЗ) 20000 м    10/4 1000 м кучево-дожд., средняя 
[Cb calv|Ac und]
+2.6 -6.6 51 +1  1009  -0.8  716  286    +3       
03 24.12.14 260 (З) 13-21{24}  10 км  слаб. ливневой дождь  10/6 420 м кучево-дожд., средняя 
[Cb cap|Ac und]
+5.2 +3.5 89 +1  1007.9  715  282  +2.5       
06 24.12.14 260 (З) 15-22  10 км  слаб. ливневой дождь  10/8 180 м кучево-дожд., средняя 
[Cb cap|Ac und]
+5.8 +3.6 86 +1  1007  715  281           
09 24.12.14 250 (З) 15-24  10 км  слаб. ливневой дождь  10/8 450 м кучево-дожд., средняя 
[Cb cap|Ac und]
+6.3 +4.6 89 +2  1006.9  715  281           
12 24.12.14 260 (З) 16-25  10 км  слаб. ливневой дождь  10/8 300 м кучево-дожд., средняя 
[Cb cap|Ac und]
+7.1 +5.6 90 +3  1007.2  0.5  715  280           
15 24.12.14 270 (З) 13  10 км  слаб. ливневой дождь  10/8 300 м кучево-дожд., средняя 
[Cb cap|Ac und]
+6.7 +4.8 88 +3  1011.1  3.6  718  282    +7.2     
18 24.12.14 280 (З) 11-18  20000 м  в посл. час ливневой дождь  10/8 480 м кучево-дожд., средняя 
[Cb cap|Ac und]
+6.4 +4.3 86 +3  1014.5  3.1  720  283           
21 24.12.14 280 (З) 11-15  10 км  слаб. ливневой дождь  10/8 240 м кучево-дожд., средняя 
[Cb cap|Ac und]
+5.9 +4.6 91 +2  1016.4  1.7  722  284           
00 25.12.14 270 (З) 7-12  20000 м  {ливн. осадки}  10/8 210 м кучево-дожд., средняя 
[Cb calv|Ac und]
+5.9 +4.5 91 +3  1017.2  0.7  722  284           
03 25.12.14 290 (З) 20000 м    10/8 200 м кучево-дожд., средняя 
[Cb calv|Ac und]
+6 +4.5 90 +4  1016.1  -1  721  284  +5.3       
06 25.12.14 270 (З) 7-11{12}  20000 м    8/5 330 м средняя 
[St|Ac trans]
+6.8 +5 88 +4  1016  -0.1  721  283           
12 25.12.14 240 (ЮЗ) 8-12{13}  20000 м    3/0 средняя 
[Ac trans]
+12.4 -0.8 40 +11  1012.7  -1.3  720  277           
15 25.12.14 270 (З) 6{17}  20000 м    ясно 
+9.7 -2.9 41 +8  1012.7  -0.5  719  280    +12.4       
18 25.12.14 270 (З) 20000 м    ясно 
+6.8 -2.9 50 +5  1013  -0.2  719  283           
21 25.12.14 280 (З) 20000 м    ясно 
+8.7 -5.6 36 +7  1012.4  -0.2  719  281           
00 26.12.14 900 () 6{12}  20000 м    3/0 
+6.1 +1 70 +4  1014.6  1.7  720  284           
03 26.12.14 310 (СЗ) 20000 м    6/6 200 м 
[St]
+5.1 +3.6 90 +3  1016.1  1.2  721  285  +5.1         
06 26.12.14 290 (З) 20000 м    6/0 верхняя 
[Ci fib]
+4.8 +2.3 84 +4  1018.1  1.8  723  286  +3.9         
09 26.12.14 270 (З) 20000 м    8/8 870 м 
[Sc]
+7.6 +2.1 68 +6  1018.2  0.7  723  283           
12 26.12.14 260 (З) 20000 м    9/9 930 м 
[Sc]
+6.9 +2.2 72 +6  1018.6  0.2  723  284           
18 26.12.14 060 (СВ) 20000 м  слаб. ливневой дождь  9/5 600 м кучево-дожд., средняя 
[Cb cap|Ac trans]
+4.4 +2.1 85 +4  1019.6  -0.4  724  287           
21 26.12.14 080 (В) 20000 м  {ливн. осадки}  10/4 1000 м кучево-дожд., средняя 
[Cb calv|Ac und]
+3.6 +2 89 +2  1018.9  -0.9  723  287           
00 27.12.14 070 (В) 4000 м  дымка{ливн. осадки}  8/5 480 м средняя 
[Sc diur, vesp|Ac trans]
+1.9 +1.1 94 1018.3  -0.9  722  289           
03 27.12.14 110 (В) 0300 м  туман  8/4 300 м средняя 
[Sc|Ac trans]
+1.6 +0.9 95 -1  1017.2  -1.1  722  289  +1.3    0.0     
06 27.12.14 120 (ЮВ) 4000 м  дымка{туман}  10/10 180 м 
[St]
+3 +2.4 96 +1  1016.8  722  287           
09 27.12.14 130 (ЮВ) 8-10{11}  20000 м    10/6 330 м средняя 
[St|Ac und]
+4.9 +2.6 85 +2  1014.8  -1.6  720  285           
15 27.12.14 140 (ЮВ) 8-10{12}  20000 м    8/8 210 м 
[St]
+1.1 -0.2 91 -3  1013.9  -0.3  719  289    +5.5       
18 27.12.14 140 (ЮВ) 10-13  3000 м  дымка  10/10 100 м 
[St]
+1.1 +0.3 94 -4  1012.5  -1.3  718  288           
21 27.12.14 150 (ЮВ) 8-10{14}  20000 м    8/5 180 м средняя 
[St|Ac trans]
+1.1 -0.1 92 -3  1011.1  -1.4  717  288           
00 28.12.14 140 (ЮВ) 7{12}  20000 м    4/4 300 м 
[St]
+0.7 -0.2 94 -3  1008.8  -2.2  715  287           
03 28.12.14 130 (ЮВ) 20000 м    8/3 600 м средняя 
[Sc|Ac trans]
+0.9 -0.3 92 -2  1006.5  -2.1  714  287  +0.5         
06 28.12.14 280 (З) 20000 м    10/8 600 м средняя 
[Sc|Ac und]
+6.1 +1.3 71 +4  1008.7  3.1  716  282  +0.5         
09 28.12.14 250 (З) 12-21{21}  20000 м    9/5 600 м кучево-дожд., средняя 
[Cb calv|Ac trans]
+7.7 -0.7 55 +4  1009  0.5  717  281           
12 28.12.14 250 (З) 16-21{25}  20000 м  {ливн. осадки}  6/3 600 м средняя 
[Sc diur, vesp|Ac trans]
+6 -2.4 55 +1  1012.3  2.8  719  284           
15 28.12.14 270 (З) 7-11{21}  20000 м    3/0 средняя 
[Ac trans]
+1.5 -2 77 -2  1016.3  2.9  721  289    +8  0.0     
21 28.12.14 230 (ЮЗ) 3{12}  20000 м    3/0 средняя 
[Ac trans]
-3.3 -6.5 78 -5  1020.5  1.7  723  296           
00 29.12.14 130 (ЮВ) 20000 м    3/0 средняя 
[Ac trans]
-3.5 -6.2 82 -6  1020.5  723  296           
06 29.12.14 120 (ЮВ) 20000 м    10/5 600 м средняя 
[Sc|Ac und]
+1.4 -1.5 81 1018.7  0.1  723  290           
09 29.12.14 130 (ЮВ) 9-12{12}  20000 м    10/3 1000 м средняя 
[Sc|Ac und]
+2.9 -1.5 73 -1  1015.9  -2.3  721  287           
12 29.12.14 130 (ЮВ) 9-12{17}  20000 м    9/3 1000 м средняя 
[Sc|Ac trans]
+3.2 -2.3 67 -1  1013.3  -2.4  719  287           
15 29.12.14 140 (ЮВ) 10-13  20000 м    9/0 средняя 
[Ac trans]
+2.5 -4 62 -2  1011.8  -1.5  718  287    +4.4       
18 29.12.14 140 (ЮВ) 9-13{14}  20000 м    9/0 средняя 
[Ac trans]
+2.4 -3.5 65 -2  1009.9  -1.8  716  286           
21 29.12.14 130 (ЮВ) 5{13}  20000 м    9/0 средняя 
[Ac trans]
+1 -2.8 76 -2  1008.7  -1.4  715  287           
00 30.12.14 170 (Ю) 20000 м    9/0 средняя 
[Ac trans]
+1.8 -2.7 72 1008.1  -0.4  715  286           
03 30.12.14 270 (З) 20000 м    10/0 средняя 
[Ac und]
+7.4 +2 69 +5  1008.1  1.1  716  280  +0.6         
06 30.12.14 270 (З) 12-18{18}  20000 м    10/1 300 м средняя, верхняя 
[Sc|Ac lent|Ci]
+6.7 +1 67 +3  1010.9  2.5  718  282           
12 30.12.14 280 (З) 7{19}  20000 м  {ливн. осадки}  10/8 420 м средняя 
[Sc|Ac und]
-0 -3.4 78 -4  1015.9  2.9  720  291           
15 30.12.14 270 (З) 10 км  слаб. ливневой снег  10/4 600 м кучево-дожд., средняя 
[Cb cap|Ac und]
-2 -4.6 82 -5  1018.8  2.3  722  294    +8       
18 30.12.14 270 (З) 4000 м  слаб. ливневой снег  10/6 600 м кучево-дожд., средняя 
[Cb cap|Ac und]
-3 -4.3 91 -6  1020.2  1.1  723  295           
00 31.12.14 300 (СЗ) 10 км  {ливн. осадки}  10/10 240 м 
[St]
-4 -5.5 89 -6  1023  0.8  725  297           
03 31.12.14 340 (С) 10 км    10/10 180 м 
[St]
-5.2 -6.2 93 -7  1023.9  0.6  725  299  -5.2    равномерный
сухой снег
100% 
09 31.12.14 020 (С) 10 км  в посл. час снег  10/10 180 м 
[Ns]
-6.3 -7.6 90 -9  1026.7  0.5  727  301           
12 31.12.14 040 (СВ) 10 км  {снег}  10/10 210 м 
[Ns]
-6.3 -8 88 -8  1026.5  -0.2  727  301           
21 31.12.14 090 (В) 10 км    10/5 300 м средняя 
[St|Ac und]
-8.8 -10 91 -12  1027.2  -0.7  727  304           
00 01.01.15 070 (В) 10 км    10/10 210 м 
[St]
-8.9 -10 92 -12  1027.1  -0.1  727  304           
06 01.01.15 110 (В) 10 км    10/8 200 м средняя 
[St|Ac und]
-8.1 -9.3 91 -10  1026.1  0.3  726  302           
09 01.01.15 160 (Ю) 20000 м    8/3 1000 м средняя 
[Sc|Ac trans]
-6.2 -8 87 -6  1025  -0.6  726  300           
15 01.01.15 160 (Ю) 20000 м    4/0 средняя 
[Ac trans]
-7.5 -8.8 91 -7  1025  0.4  726  301    -4.1       
18 01.01.15 280 (З) 20000 м    3/0 средняя 
[Ac trans]
-7.2 -8.6 90 -9  1025.4  0.5  726  301           
21 01.01.15 280 (З) 20000 м    3/0 средняя 
[Ac trans]
-7.1 -8.4 91 -11  1025  -0.4  726  301           
00 02.01.15 250 (З) 20000 м    3/0 средняя 
[Ac trans]
-7.9 -9.4 89 -11  1024.6  -0.5  725  302           
03 02.01.15 280 (З) 20000 м    3/0 средняя 
[Ac trans]
-8 -10 85 -11  1023.8  -0.8  725  302  -9      равномерный
сухой снег
100% 
06 02.01.15 230 (ЮЗ) 20000 м    3/0 средняя 
[Ac trans]
-4.6 -6.7 85 -6  1023.8  0.7  725  298           
09 02.01.15 270 (З) 20000 м    3/0 верхняя 
[Ci fib]
+1.5 -4 67 -2  1021.6  -0.8  725  291           
12 02.01.15 270 (З) 20000 м    4/0 верхняя 
[Ci]
+0.8 -7.7 53 -2  1020.6  -1.1  724  291           
15 02.01.15 260 (З) 8-10  20000 м    5/0 верхняя 
[Ci fib]
-1.9 -6 74 -7  1021  -0.2  724  294    +1.5       
03 03.01.15 280 (З) 11  20000 м    4/0 средняя 
[Ac trans]
+1 -2.7 76 -4  1016.7  -1  721  290  -2.3      мокрый или
старый снег
10-40% 
06 03.01.15 270 (З) 9-13{18}  20000 м    4/1 300 м средняя, верхняя 
[St|Ac lent|Ci sp]
+1.6 -2.1 76 -3  1016.3  -0.2  721  289           
12 03.01.15 260 (З) 5{15}  20000 м    6/3 600 м средняя, верхняя 
[Sc|Ac As|Ci sp]
+4.1 -0.9 70 +2  1012.3  -1.8  718  285           
15 03.01.15 250 (З) 7{13}  20000 м    10/4 600 м средняя 
[Sc|Ac und]
+3.6 -0.9 72 1011.9  -0.5  718  286    +5.6       
18 03.01.15 240 (ЮЗ) 8-12{14}  20000 м    10/6 600 м кучево-дожд., средняя 
[Cb calv|Ac und]
+3.4 -0.6 75 1010.6  -1.3  717  285           
21 03.01.15 250 (З) 7{12}  10 км  слаб. ливневой дождь  10/6 450 м кучево-дожд., средняя 
[Cb cap|Ac und]
+2.2 +0.1 86 -1  1010.1  -0.6  717  286           
00 04.01.15 270 (З) 7-10  1100 м  ливневой снег  10/8 120 м кучево-дожд., средняя 
[Cb cap|Ac und]
-1 -1.8 94 -5  1013  718  291           
03 04.01.15 260 (З) 20000 м  в посл. час ливневой снег  10/8 200 м кучево-дожд., средняя 
[Cb calv|Ac und]
-1 -2 93 -5  1013.1  0.1  718  291  -1.2       
06 04.01.15 250 (З) 7-11  20000 м  {ливн. осадки}  6/6 600 м 
[Sc]
-0.5 -2.6 86 -4  1013.2  0.2  718  290           
Время (UTC), дата Ветер
(°,м/с) 
Видим.   Явления Облачность Т
(°С)
Тd
(°С)
f(%) Тe
(°С)
Pmin
(гПа)
dP
(гПа)
Po
(мм)
O2
(г/м3)
Тmin Tmax R s Состояние
почвы